Simultaneous Nadir Overpasses (SNOs) Predictions

Prediction of SNOs between AQUA and METOP-C Satellite Orbit:

Table of predicted SNOs for the next 14.0 days since TLE Epoch: 1/13/2024
Index Date (AQUA) Time (AQUA) Lat,Lon (AQUA) SZA (AQUA ) Date (METOP-C) Time (METOP-C) Lat,Lon (METOP-C) SZA (METOP-C ) Distance(km) Time Diff (sec)
1 01/14/2024 20:53:30 74.97,-136.07 96.21 01/14/2024 20:52:26 74.99,-136.10 96.25 3.06 64
2 01/14/2024 21:42:54 -75.05, 31.36 83.71 01/14/2024 21:43:06 -75.03, 31.35 83.73 2.30 12
3 01/14/2024 22:32:29 75.60,-162.51 96.87 01/14/2024 22:33:35 75.59,-159.65 96.80 79.17 66
4 01/17/2024 13:55:01 -75.01, 148.49 84.25 01/17/2024 13:54:45 -75.03, 148.41 84.23 3.06 16
5 01/17/2024 14:44:27 75.10, -44.12 95.85 01/17/2024 14:45:24 75.10, -44.03 95.84 2.32 57
6 01/20/2024 06:07:08 -75.04, -94.57 84.77 01/20/2024 06:06:24 -75.00, -94.55 84.79 3.38 44
7 01/20/2024 06:56:33 75.08, 72.95 95.28 01/20/2024 06:57:03 75.08, 72.98 95.27 1.24 30
8 01/22/2024 22:19:12 -74.99, 22.58 85.41 01/22/2024 22:18:02 -75.02, 22.58 85.37 3.72 70
9 01/22/2024 23:08:38 75.09,-170.04 94.70 01/22/2024 23:08:41 75.08,-169.90 94.69 3.93 3
10 01/22/2024 23:58:06 -75.37, -3.16 85.02 01/22/2024 23:59:16 -75.38, -1.70 85.05 41.04 70
11 01/25/2024 15:20:40 75.07, -52.96 94.04 01/25/2024 15:20:19 75.03, -52.96 94.01 3.97 21



Historial Predications of SNOs between AQUA and METOP-C
